Regional Weather Roundup
Issued by NWS

Home | Current Version | Previous Version | Graphics & Text | Print | Product List | Glossary On
Versions: 1 2 3 4 5 6 7 8 9 10 11 12 13 14 15 16 17 18 19 20 21 22 23 24 25 26 27 28 29 30 31 32 33 34 35 36 37 38 39 40 41 42 43 44 45 46 47 48 49 50
000
ASUS45 KABQ 210610
RWRNM
WEATHER ROUNDUP FOR NEW MEXICO
NATIONAL WEATHER SERVICE ALBUQUERQUE NM
1100 PM MST SAT DEC 20 2014

NOTE: "FAIR" MEANS FEW OR NO CLOUDS BELOW 12,000 FEET AGL WITH NO
       SIGNIFICANT WEATHER OR OBSTRUCTIONS TO VISION.

      THIS PRODUCT IS RELEASED AS TWO VERSIONS.  ONE VERSION NEAR
      THE TOP OF THE HOUR CONTAINING PRELIMINARY DATA FROM ALBUQUERQUE
      AND OTHER STATIONS.  A FINAL VERSION WITH ADDITIONAL DATA IS
      ISSUED ABOUT 10 MINUTES AFTER THE HOUR.

NMZ501-503-504-510>518-210700-
NORTHWEST PLATEAU/NORTHCENTRAL MOUNTAINS

CITY           SKY/WX    TMP DP  RH WIND       PRES   REMARKS
FARMINGTON     CLOUDY    33  28  81 NW3       30.12R
6HR MIN TEMP:  33; 6HR MAX TEMP:  36;

LOS ALAMOS     MOCLDY    32  23  68 E3        30.09R
SANTA FE       CLOUDY    32  23  69 N10       30.05F WCI  24
6HR MIN TEMP:  27; 6HR MAX TEMP:  36;

TAOS           MOCLDY    30  19  64 CALM      30.08S
ANGEL FIRE     FAIR      27  20  73 W6        30.05S WCI  20

$$
NMZ402-403-502-505>509-210700-
WESTCENTRAL MOUNTAINS/SOUTHWEST MOUNTAINS

CITY           SKY/WX    TMP DP  RH WIND       PRES   REMARKS
GALLUP         CLEAR     31  26  82 CALM      30.13S
6HR MIN TEMP:  30; 6HR MAX TEMP:  39;

GRANTS         MOCLDY    27  23  85 CALM      30.12S
SILVER CITY    CLOUDY    39  32  75 NW9       30.14S WCI  33

$$
NMZ407-409-411-412-210700-
SOUTHERN DESERTS

CITY           SKY/WX    TMP DP  RH WIND       PRES   REMARKS
LORDSBURG      FAIR      36  32  87 W6        30.13S WCI  31
DEMING         CLOUDY    36  31  82 SW5       30.11F WCI  32
6HR MIN TEMP:  36; 6HR MAX TEMP:  51;

LAS CRUCES     CLOUDY    39  29  65 SW3       30.12S
HOLLOMAN AFB   CLOUDY    34  25  70 SE5       30.09S WCI  30
ALAMOGORDO     CLOUDY    32  25  74 E5        30.11R WCI  27
T OR C         CLOUDY    37  24  59 NW6       30.09F WCI  32
6HR MIN TEMP:  37; 6HR MAX TEMP:  50;


$$
NMZ519>523-210700-
CENTRAL VALLEYS/CENTRAL HIGHLANDS

CITY           SKY/WX    TMP DP  RH WIND       PRES   REMARKS
ALBUQUERQUE    MOCLDY    34  27  75 E3        30.10S
6HR MIN TEMP:  33; 6HR MAX TEMP:  42;

DOUBLE EAGLE   MOCLDY    32  26  80 CALM      30.09F
MORIARTY ARPT  FAIR      28  21  75 SE3       30.07S
6HR MIN TEMP:  25; 6HR MAX TEMP:  37;

CLINES CORNERS MOCLDY    33  21  61 W17       30.00F WCI  22
6HR MIN TEMP:  29; 6HR MAX TEMP:  34;

BELEN          FAIR      28  24  85 CALM      30.10S
6HR MIN TEMP:  28; 6HR MAX TEMP:  40;

SOCORRO        FAIR      33  24  69 S3        30.10S
6HR MIN TEMP:  32; 6HR MAX TEMP:  45;


$$
NMZ524>526-539-540-210700-
SOUTHCENTRAL MOUNTAINS

CITY           SKY/WX    TMP DP  RH WIND       PRES   REMARKS
RUIDOSO        CLOUDY    32  14  47 NE5       30.09R WCI  27

$$
NMZ527>531-210700-
NORTHEAST HIGHLANDS/NORTHEAST PLAINS

CITY           SKY/WX    TMP DP  RH WIND       PRES   REMARKS
LAS VEGAS      CLOUDY    28  13  53 NE6       29.96S WCI  22
6HR MIN TEMP:  25; 6HR MAX TEMP:  37;

RATON          PTCLDY    27  14  58 N8        29.95F WCI  19
6HR MIN TEMP:  24; 6HR MAX TEMP:  39;

CLAYTON        PTCLDY    33  22  63 SW8       29.91F WCI  26
6HR MIN TEMP:  28; 6HR MAX TEMP:  40;


$$
NMZ532>537-210700-
EASTCENTRAL PLAINS

CITY           SKY/WX    TMP DP  RH WIND       PRES   REMARKS
TUCUMCARI      CLOUDY    31  19  61 SW5       29.93S WCI  26
6HR MIN TEMP:  31; 6HR MAX TEMP:  47;

CANNON AFB     CLOUDY    32  20  61 SW8       29.97F WCI  24
6HR MIN TEMP:  28; 6HR MAX TEMP:  45;

CLOVIS AIRPORT MOCLDY    28  18  64 SW5       29.97F WCI  23

$$
NMZ028-029-538-210700-
SOUTHEAST PLAINS

CITY           SKY/WX    TMP DP  RH WIND       PRES   REMARKS
ROSWELL        MOCLDY    33  24  69 SW7       30.00F WCI  27
6HR MIN TEMP:  33; 6HR MAX TEMP:  49;

ARTESIA        PTCLDY    39  23  52 W12       30.02F WCI  32
CARLSBAD       CLEAR     44  24  45 SW10      30.02F
6HR MIN TEMP:  43; 6HR MAX TEMP:  55;

HOBBS          PTCLDY    37  37 100 S9        30.04F WCI  31


$$


USA.gov is the U.S. government's official web portal to all federal, state and local government web resources and services.